Sigfox identifier Datetime Temperature Humidity SNR
003A616D 2019-06-03 16:58:22 18.8 46 17.8
003A616D 2019-06-03 15:53:11 18 47 17.7
003A616D 2019-06-03 14:47:56 17.2 46 17.6
003A616D 2019-06-03 13:42:44 16.2 46 17.6
003A616D 2019-06-03 11:32:18 13.5 46 12.5
003A616D 2019-06-03 09:21:49 11.1 42 12.7
003A616D 2019-06-03 08:16:33 10.6 41 12.8
003A616D 2019-06-03 07:11:18 10.8 40 12.7
003A616D 2019-06-03 06:06:02 11.4 39 12.7
003A616D 2019-06-03 05:00:47 12.3 40 12.8
003A616D 2019-06-03 03:55:29 13.4 40 13
003A616D 2019-06-03 02:50:13 14.4 40 13
003A616D 2019-06-03 01:44:57 15.6 41 13.1
003A616D 2019-06-03 00:39:42 16.6 42 13.2
003A616D 2019-06-02 23:34:26 17.4 43 13.2
003A616D 2019-06-02 22:29:16 18 44 13.2
003A616D 2019-06-02 21:24:05 18.3 44 13.2
003A616D 2019-06-02 20:18:53 17.8 44 13.3
003A616D 2019-06-02 19:13:43 17.2 44 13.3
003A616D 2019-06-02 18:08:29 16.1 43 13.3
003A616D 2019-06-02 17:03:17 15.1 42 13.3
003A616D 2019-06-02 15:58:03 14 41 13.4
003A616D 2019-06-02 14:52:52 13.4 40 13.6
003A616D 2019-06-02 13:47:42 13.1 39 13.5
003A616D 2019-06-02 12:42:28 13.1 39 13.7
003A616D 2019-06-02 11:37:17 13.1 38 13.9
003A616D 2019-06-02 10:32:07 12.9 38 13.9
003A616D 2019-06-02 09:26:59 12.9 38 13.8
003A616D 2019-06-02 08:21:50 12.9 37 13.8
003A616D 2019-06-02 07:16:38 12.9 37 13.7
003A616D 2019-06-02 06:11:28 13.2 37 13.8
003A616D 2019-06-02 05:06:15 13.4 36 13.8
003A616D 2019-06-02 04:01:06 13.8 36 13.8
003A616D 2019-06-02 02:55:55 14.2 36 13.9
003A616D 2019-06-02 01:50:42 14.7 36 14
003A616D 2019-06-02 00:45:28 15.5 36 14.3
003A616D 2019-06-01 23:40:19 16.2 36 14.5
003A616D 2019-06-01 22:35:05 17 36 14.6
003A616D 2019-06-01 21:29:53 17.8 36 14.5
003A616D 2019-06-01 20:24:41 18.7 37 14.5
003A616D 2019-06-01 19:19:32 19.1 37 14.7
003A616D 2019-06-01 18:14:23 19.2 38 15.6
003A616D 2019-06-01 17:09:11 19.1 37 16.5
003A616D 2019-06-01 16:03:56 18.9 37 18
003A616D 2019-06-01 14:58:44 18.5 37 18.6
003A616D 2019-06-01 13:53:35 17.9 36 19.4
003A616D 2019-06-01 12:48:24 17.6 35 19.8
003A616D 2019-06-01 11:43:13 17.6 35 20.8
003A616D 2019-06-01 10:38:01 17.9 34 21.3
003A616D 2019-06-01 09:32:50 18.5 34 21.9
003A616D 2019-06-01 08:27:37 18.9 35 22.4
003A616D 2019-06-01 07:22:26 19 35 23.1
003A616D 2019-06-01 06:17:14 19.1 35 23.3
003A616D 2019-06-01 05:12:02 19.1 35 23.6
003A616D 2019-06-01 04:06:55 19.1 35 23.7
003A616D 2019-06-01 03:01:50 19.2 35 23.7
003A616D 2019-06-01 01:56:48 19.3 35 24
003A616D 2019-06-01 00:51:41 19.3 35 24.3
003A616D 2019-05-31 23:46:37 19.5 35 24.6
003A616D 2019-05-31 22:41:30 19.8 35 24.8
003A616D 2019-05-31 21:36:23 20 36 25.1
003A616D 2019-05-31 20:31:18 20.2 37 25.4
003A616D 2019-05-31 19:26:12 20.4 38 25.6
003A616D 2019-05-31 18:21:05 20.6 38 25.9
003A616D 2019-05-31 17:16:01 21.3 38 26
003A616D 2019-05-31 16:10:50 21.3 39 26.2
003A616D 2019-05-31 15:05:38 21.2 39 26.2
003A616D 2019-05-31 14:00:30 21.3 39 26.3
003A616D 2019-05-31 12:55:22 21.2 39 26.2
003A616D 2019-05-31 11:50:13 21 39 26.3
003A616D 2019-05-31 10:45:02 21 39 26.3
003A616D 2019-05-31 09:39:54 20.9 38 26.4
003A616D 2019-05-31 08:34:43 20.8 38 26.3
003A616D 2019-05-31 07:29:33 20.8 38 26.3
003A616D 2019-05-31 06:24:22 20.8 39 26.2
003A616D 2019-05-31 05:19:09 20.8 39 26.2
003A616D 2019-05-31 04:13:54 20.8 39 26
003A616D 2019-05-31 03:08:42 20.8 39 26.2
003A616D 2019-05-31 02:03:29 20.7 39 26.2
003A616D 2019-05-31 00:58:17 20.7 39 26.4
003A616D 2019-05-30 23:53:05 20.6 40 26.5
003A616D 2019-05-30 22:47:52 20.6 40 26.6
003A616D 2019-05-30 21:42:40 20.6 40 26.5
003A616D 2019-05-30 20:37:27 20.6 40 26.6
003A616D 2019-05-30 19:32:15 20.5 41 26.6
003A616D 2019-05-30 18:27:02 20.4 41 26.5
003A616D 2019-05-30 17:21:52 20.5 41 26.5
003A616D 2019-05-30 16:16:39 20.6 42 26.4
003A616D 2019-05-30 15:11:27 20.6 42 26.3
003A616D 2019-05-30 14:06:14 20.6 42 26.3
003A616D 2019-05-30 13:01:01 20.8 43 26.3
003A616D 2019-05-30 11:55:47 20.8 43 26.3
003A616D 2019-05-30 10:50:33 20.8 43 26.2
003A616D 2019-05-30 09:45:19 20.8 43 26.2
003A616D 2019-05-30 08:40:07 20.8 44 26.3
003A616D 2019-05-30 07:34:55 20.8 44 26.3
003A616D 2019-05-30 06:29:42 20.8 44 26.2
003A616D 2019-05-30 05:24:28 20.9 45 26.3
003A616D 2019-05-30 04:19:12 21 45 26.3
003A616D 2019-05-30 03:14:00 21 45 26.3
003A616D 2019-05-30 02:08:46 21 46 26.3
003A616D 2019-05-30 01:03:32 21 46 26.3
003A616D 2019-05-29 23:58:16 21 47 26.2
003A616D 2019-05-29 22:53:01 21.1 47 26.3
003A616D 2019-05-29 21:47:49 21.2 47 26.3
003A616D 2019-05-29 20:42:37 21.3 48 26.3
003A616D 2019-05-29 19:37:27 21.3 48 26.3
003A616D 2019-05-29 18:32:18 21.3 48 26.3
003A616D 2019-05-29 17:27:08 21.5 49 26.3
003A616D 2019-05-29 16:21:58 21.4 49 26.1
003A616D 2019-05-29 15:16:46 21.3 48 25.9
003A616D 2019-05-29 14:11:33 21.3 48 25.8
003A616D 2019-05-29 13:06:22 21.3 48 25.6
003A616D 2019-05-29 12:01:12 21.3 48 25.4
003A616D 2019-05-29 10:55:59 21.3 47 25.3
003A616D 2019-05-29 09:50:47 21.2 47 25.1
003A616D 2019-05-29 08:45:31 21.2 47 25.1
003A616D 2019-05-29 07:40:16 21.3 47 24.8
003A616D 2019-05-29 06:35:01 21.3 47 24.7
003A616D 2019-05-29 05:29:46 21.3 47 24.4
003A616D 2019-05-29 04:24:31 21.3 46 24.2
003A616D 2019-05-29 03:19:17 21.3 46 24
003A616D 2019-05-29 02:14:03 21.3 46 23.4
003A616D 2019-05-29 01:08:47 21.3 46 23.2
003A616D 2019-05-29 00:03:31 21.3 46 22.9
003A616D 2019-05-28 22:58:16 21.3 46 22.6
003A616D 2019-05-28 21:53:00 21.3 46 22.2
003A616D 2019-05-28 20:47:44 21.3 46 21.7
003A616D 2019-05-28 19:42:28 21.3 46 20.7
003A616D 2019-05-28 18:37:13 21.3 46 19.1
003A616D 2019-05-28 17:31:56 21.3 46 18.2
003A616D 2019-05-28 16:26:39 21.3 46 16.5
003A616D 2019-05-28 15:21:26 21.3 45 14.3
003A616D 2019-05-28 14:16:09 21.2 45 14.3
003A616D 2019-05-28 12:05:36 21 45 14.3
003A616D 2019-05-28 11:00:22 21 45 14
003A616D 2019-05-28 09:55:05 21 44 14.3
003A616D 2019-05-28 08:49:44 21 44 14.1
003A616D 2019-05-28 07:44:29 21.1 44 14.2
003A616D 2019-05-28 06:39:06 21.1 44 13.4
003A616D 2019-05-28 05:33:48 21.1 44 12.3
003A616D 2019-05-28 04:28:33 21.1 44 12.5
003A616D 2019-05-28 03:23:17 21.3 44 12.7
003A616D 2019-05-28 02:18:05 21.2 45 13
003A616D 2019-05-28 01:12:54 21.3 45 13
003A616D 2019-05-28 00:07:45 21.2 45 12.3
003A616D 2019-05-27 23:02:29 21.3 45 12.3
003A616D 2019-05-27 21:57:16 21.3 45 12.8
003A616D 2019-05-27 20:51:59 21.3 45 13.2
003A616D 2019-05-27 19:46:44 21.3 45 14.2
003A616D 2019-05-27 18:41:30 21.3 45 9
003A616D 2019-05-27 17:36:11 21.5 46 10.8
003A616D 2019-05-27 15:25:45 21.3 53 0